Temperature
11 10 10 9 9 9 9 8 8 8 7 7 7 7 7 7 7 7 6 6 6 6 6 7 6 7 7 7 8 9 10 11 12 12 12 12 12 12 12 13 13 13 13
11 10 10 9 9 9 9 9 9 8 8 8 7 7 7 7 6 6 6 6 6 6 6 6 6 6 6 7 7 8 10 10 11 11 11 11 11 11 11 11 12 11 12
11 10 9 10 10 10 10 10 9 9 8 8 7 7 7 6 6 6 6 5 5 5 5 5 5 5 6 6 7 8 9 10 10 11 11 11 10 9 8 9 10 10 11
10 10 9 10 10 10 10 10 10 9 9 8 8 7 7 6 6 6 5 5 5 5 5 5 5 5 5 6 7 7 9 9 10 10 10 10 9 8 7 7 8 9 10
10 10 10 10 10 10 10 10 10 10 9 9 8 7 7 6 6 6 5 5 5 5 5 5 5 5 6 6 7 7 8 8 9 9 9 9 9 7 7 7 7 8 8
10 10 10 11 11 11 10 10 10 10 9 9 9 8 7 7 6 6 5 5 5 4 4 5 5 5 6 6 7 7 8 8 8 8 8 8 8 7 6 6 7 7 8
11 10 10 10 10 10 10 10 10 10 10 9 9 8 8 7 7 6 5 5 5 4 4 5 5 6 6 6 7 7 7 7 7 7 7 7 7 6 5 5 6 6 6
11 10 10 10 10 10 10 10 10 10 9 9 9 8 8 7 7 6 6 5 5 5 5 5 6 6 6 6 6 6 6 6 6 6 6 6 6 5 4 4 4 4 4
10 10 10 9 10 10 10 10 10 9 9 9 9 8 8 7 7 6 5 5 5 5 5 6 6 6 6 5 5 5 5 5 5 5 5 5 5 4 3 3 3 4 3
11 10 10 9 9 9 9 10 9 9 9 9 8 8 7 7 6 6 6 6 6 5 6 6 5 5 5 5 5 4 4 4 4 4 4 4 4 3 2 2 2 3 3
11 11 10 9 9 9 9 9 9 9 8 8 8 7 7 7 6 6 6 6 5 5 5 5 5 5 4 4 4 4 4 3 3 3 3 3 2 2 1 1 1 1 1
12 11 11 10 9 9 9 9 8 8 8 8 7 7 7 6 6 6 6 5 5 5 5 5 5 4 4 4 3 3 3 2 2 2 2 2 1 0 -1 -1 -1 -1 -0
13 12 11 11 10 9 9 9 8 8 8 7 7 7 7 6 6 6 6 5 5 5 4 4 4 4 3 3 3 2 2 1 1 1 0 1 -0 -1 -2 -2 -2 -2 -2
13 13 12 11 10 9 9 8 8 8 8 7 7 7 6 6 6 6 6 5 5 4 4 4 3 3 3 3 2 2 1 0 -0 -0 -0 -0 -1 -2 -3 -4 -4 -3 -3
14 13 12 11 10 10 9 8 8 8 8 7 7 7 6 6 6 6 5 5 5 4 4 3 3 3 2 2 2 1 1 -0 -1 -2 -1 -2 -2 -3 -4 -4 -5 -4 -4
14 13 13 12 11 10 9 9 8 8 8 7 7 7 6 6 6 6 5 5 4 4 3 3 3 2 2 2 1 1 0 -0 -1 -2 -2 -3 -3 -3 -4 -5 -5 -5 -5
15 14 13 12 11 10 9 9 8 8 7 7 7 6 6 6 6 5 5 5 4 4 3 3 2 2 1 1 1 0 0 -0 -1 -2 -3 -3 -4 -4 -4 -5 -6 -6 -6
15 14 13 12 12 11 10 9 8 8 7 7 7 6 6 6 6 5 5 4 4 3 3 2 2 1 1 0 0 -0 -0 -1 -1 -2 -3 -3 -4 -5 -5 -6 -6 -6 -6
15 14 13 13 12 11 10 9 8 8 8 7 7 7 6 6 6 5 5 4 4 3 3 2 2 1 0 -0 -1 -0 -1 -1 -1 -2 -3 -4 -4 -5 -5 -6 -6 -7 -7
15 14 14 13 12 11 10 9 9 8 8 7 7 7 6 6 6 5 5 4 4 3 3 2 1 1 0 -1 -1 -1 -1 -1 -2 -2 -3 -3 -4 -5 -5 -6 -7 -7 -7
15 15 14 14 13 12 11 10 10 9 9 8 8 7 7 6 6 5 5 4 4 3 2 2 1 0 -1 -2 -3 -4 -3 -3 -2 -2 -3 -3 -4 -5 -5 -6 -7 -7 -7
16 16 15 15 14 13 12 12 11 10 9 9 9 8 7 7 6 5 5 4 4 3 2 2 1 0 -1 -2 -4 -5 -5 -4 -5 -4 -3 -4 -4 -5 -5 -6 -7 -7 -7
16 16 16 16 15 14 13 12 11 10 9 9 9 9 8 7 6 6 5 4 4 3 2 2 1 -0 -1 -3 -3 -4 -6 -4 -5 -6 -6 -5 -5 -5 -6 -6 -7 -7 -8
17 17 16 16 15 15 14 13 12 12 12 12 11 11 10 9 7 6 5 5 4 3 2 2 1 0 -1 -2 -4 -4 -5 -6 -7 -7 -6 -6 -6 -6 -7 -7 -7 -8 -8
17 17 17 16 16 15 15 14 13 13 13 11 11 11 10 10 9 7 6 5 4 3 3 2 1 0 -1 -2 -3 -4 -5 -6 -7 -9 -8 -6 -6 -6 -7 -7 -7 -8 -8
18 18 17 17 17 16 15 15 14 14 13 12 11 11 11 10 10 8 7 5 4 3 3 2 1 -0 -1 -1 -3 -4 -5 -6 -7 -7 -8 -7 -7 -6 -7 -7 -7 -7 -8
Wind_Speed
12 14 11 12 10 9 9 9 9 10 11 12 13 14 15 16 17 18 18 19 20 21 21 22 23 23 23 24 24 24 25 25 25 25 25 25 26 28 28 28 27 24 28
16 16 14 13 11 10 9 9 9 10 10 11 12 13 14 15 16 17 17 18 19 20 20 21 21 22 22 23 23 23 23 23 23 22 22 21 23 27 27 27 27 25 27
17 16 16 14 13 11 10 9 9 9 10 11 11 12 13 14 15 15 16 17 17 18 19 20 20 20 21 22 22 22 22 22 21 20 19 18 19 25 26 26 26 27 27
17 15 15 15 14 12 10 9 9 9 10 10 10 11 12 12 13 14 15 15 16 17 18 18 19 20 20 21 22 22 22 21 21 19 17 18 18 24 26 26 26 26 26
16 15 15 16 14 12 11 10 9 9 9 9 9 10 11 11 12 13 13 14 15 15 16 17 18 18 19 20 21 22 22 22 20 19 18 18 19 25 26 26 26 26 26
17 16 16 16 15 13 11 10 9 9 9 9 9 9 10 10 11 11 12 12 13 14 15 16 16 17 18 19 21 22 23 22 19 18 18 18 20 25 26 26 27 27 27
17 16 16 17 15 14 12 11 10 9 9 9 8 8 9 9 9 9 10 11 11 12 13 14 15 16 17 18 19 21 22 21 18 17 17 17 21 26 26 26 26 26 27
17 16 15 17 16 14 13 12 11 10 9 9 8 8 8 8 8 8 8 9 10 10 12 13 13 15 16 17 18 19 20 19 16 16 16 16 23 25 25 25 26 26 26
17 16 15 16 17 16 14 13 12 11 10 10 9 8 7 7 7 7 7 7 8 9 10 11 12 13 14 15 16 17 17 16 15 14 14 15 23 25 25 25 26 26 26
16 17 16 15 16 16 15 15 13 12 11 10 10 9 8 7 6 6 5 6 6 7 8 9 10 11 12 13 14 15 14 12 13 13 12 16 23 23 24 25 25 26 26
16 17 17 17 16 15 14 15 15 14 12 12 11 10 8 6 5 4 5 5 5 5 6 7 8 9 8 10 12 12 10 10 11 10 11 17 21 22 23 24 24 25 26
21 20 19 18 17 16 14 14 13 13 13 12 11 10 8 6 5 5 5 4 4 4 4 5 6 6 6 6 8 8 8 10 9 9 10 17 19 21 22 22 23 24 25
22 21 19 20 19 18 15 14 12 12 12 12 12 11 9 8 7 6 5 5 4 2 1 1 2 4 5 6 6 7 8 8 8 9 10 14 18 19 20 21 22 23 24
22 23 21 22 20 19 17 15 14 13 12 12 13 14 11 9 8 7 6 6 5 3 2 1 1 2 3 4 5 6 7 7 8 9 10 13 16 18 19 20 21 22 23
22 22 22 23 22 20 18 16 15 15 14 14 14 15 14 11 10 9 8 7 6 5 4 2 1 2 3 4 5 6 8 9 10 11 10 13 16 17 19 20 21 22 23
23 23 22 23 24 22 19 17 16 16 15 15 15 16 16 13 11 10 9 8 7 6 5 3 2 3 4 5 7 8 9 10 11 12 12 13 15 16 18 19 20 21 22
24 23 23 23 24 23 21 20 17 16 16 15 15 17 18 16 14 12 10 9 9 8 6 5 4 4 5 6 8 9 10 11 12 13 13 13 13 14 16 18 19 21 22
22 22 23 19 22 23 22 20 17 17 17 16 16 17 19 18 16 14 11 10 10 9 8 7 6 5 5 6 7 8 9 11 13 14 13 13 13 13 14 17 19 21 22
22 22 22 23 23 22 22 20 19 17 18 17 17 17 19 20 19 16 13 11 12 10 9 8 7 6 6 7 7 8 10 11 12 13 13 14 14 14 14 16 19 21 22
21 21 21 22 22 21 19 17 15 16 17 18 18 19 20 20 21 18 14 14 13 10 9 8 8 8 7 7 7 9 10 12 12 12 13 13 13 14 15 16 16 17 20
21 21 22 22 23 20 17 17 17 17 15 15 18 21 22 22 22 21 16 15 15 11 11 11 9 9 8 7 7 8 10 11 11 10 11 12 13 14 15 16 16 16 16
22 22 23 24 23 23 19 18 15 15 14 16 17 21 24 24 23 21 20 16 16 12 13 12 11 9 8 8 6 6 6 6 8 9 9 10 12 13 14 16 17 18 19
21 23 21 24 24 24 22 15 13 13 12 14 17 17 23 25 25 24 23 20 17 15 13 14 13 13 10 9 9 7 6 5 5 7 11 10 11 11 13 15 18 19 20
19 18 20 21 22 22 22 20 21 18 19 19 16 16 19 25 26 26 25 23 19 16 15 15 14 13 12 10 9 10 10 8 7 6 6 9 12 13 14 14 17 19 21
16 17 17 19 20 21 23 23 23 22 20 16 16 18 19 20 26 27 26 23 20 17 17 16 15 15 13 12 10 9 10 11 12 10 10 11 11 12 13 14 16 18 20
13 15 17 19 21 22 23 24 26 26 23 20 20 18 17 16 18 25 26 24 22 18 18 17 16 17 15 14 12 11 11 9 9 11 13 14 14 13 14 14 15 17 19
Wind_Direction
159 157 159 149 138 126 113 102 91 81 75 70 67 66 63 60 59 57 55 54 52 50 49 48 47 45 45 45 46 45 40 34 32 30 28 25 23 24 24 22 19 17 15
153 156 157 151 143 133 122 111 99 89 81 75 71 69 66 62 60 57 56 54 52 51 49 48 46 45 44 45 45 44 40 35 33 31 29 26 22 21 22 20 18 15 13
152 155 155 153 147 139 130 119 108 96 87 80 75 72 69 64 62 58 56 54 52 51 49 47 46 45 45 44 44 42 39 35 33 31 30 26 19 18 20 19 15 13 11
155 157 156 153 151 145 138 128 116 104 94 85 79 75 71 65 62 59 56 54 51 50 48 47 44 43 44 43 41 39 37 33 30 29 28 23 16 14 17 16 14 11 8
160 160 156 158 156 151 144 135 124 112 102 92 83 79 75 68 63 60 56 54 50 49 48 47 44 42 41 40 38 36 34 30 27 27 24 18 13 10 12 12 10 8 6
165 164 162 163 161 157 152 144 134 123 112 102 92 85 79 72 66 63 59 54 51 49 48 47 44 42 40 38 35 33 30 26 24 23 19 14 9 5 7 8 6 5 3
169 169 168 168 167 165 160 153 144 134 124 114 103 94 87 80 71 66 62 56 52 50 49 47 45 42 40 37 35 31 26 22 22 19 14 10 4 1 3 4 2 1 359
173 173 174 175 174 172 168 162 155 147 138 128 117 106 96 88 80 71 67 61 54 51 50 48 46 43 39 37 34 30 24 20 16 14 9 5 360 358 359 359 358 357 355
180 180 181 181 180 179 177 172 166 159 151 142 132 121 110 99 90 78 72 67 58 54 52 50 48 45 40 36 32 27 20 16 14 9 4 1 355 354 354 354 353 352 351
188 189 187 186 183 182 182 180 175 169 164 156 146 137 126 115 106 94 86 76 66 58 55 53 50 46 41 37 31 24 16 10 8 3 -0 354 350 349 348 348 347 346 345
196 196 194 191 187 186 185 181 181 178 174 168 162 154 152 152 145 136 100 91 79 64 59 55 49 45 43 39 30 20 13 5 356 354 352 348 344 343 342 342 341 340 339
198 198 197 197 192 190 187 184 186 183 178 182 177 173 176 173 168 158 130 117 102 82 71 56 49 40 30 22 19 12 4 353 348 343 340 340 337 336 335 334 333 333 332
199 197 200 199 197 195 191 189 188 186 184 189 191 189 186 181 178 184 181 172 169 166 148 69 29 28 22 16 1 355 348 341 332 327 324 328 327 326 325 325 325 325 325
201 201 200 200 200 200 198 196 195 193 193 193 194 195 192 191 193 193 199 194 196 196 198 242 355 11 1 352 341 333 327 321 314 311 308 312 314 314 315 316 318 319 320
205 204 203 201 201 201 202 202 202 202 200 198 194 197 199 198 198 198 199 200 202 201 205 221 272 318 317 317 312 309 307 304 300 297 295 297 300 303 305 309 312 314 315
207 206 203 202 203 201 202 204 205 205 203 201 199 200 201 204 202 201 202 203 204 204 206 217 246 278 290 293 293 294 294 294 289 288 287 290 289 291 296 301 305 308 309
208 206 204 203 203 203 205 207 207 206 203 203 203 202 202 206 206 204 206 206 205 202 204 214 224 251 269 277 281 286 287 285 283 282 282 282 283 283 285 291 297 300 303
209 207 205 201 203 205 207 208 209 208 206 207 205 204 205 207 207 207 209 209 203 204 210 217 226 242 252 266 276 280 280 279 279 278 276 273 274 277 280 283 288 293 297
210 206 204 202 204 205 207 208 211 211 210 210 208 206 205 206 207 208 212 209 203 206 210 214 222 234 248 258 269 277 276 274 275 272 268 267 267 268 274 280 283 286 289
210 207 204 203 205 204 205 210 212 215 216 214 212 210 206 206 207 209 212 210 205 207 209 210 219 224 240 254 267 272 271 270 269 265 264 263 263 265 269 276 281 282 284
210 207 205 203 203 202 202 206 209 213 214 215 216 213 209 208 206 208 211 209 206 210 212 212 217 226 230 236 258 268 265 258 258 255 256 260 262 266 269 273 277 281 285
210 208 207 206 204 203 205 206 210 215 219 218 217 217 213 211 208 208 211 209 208 211 213 213 213 221 227 221 235 268 280 257 235 247 257 260 266 270 272 275 278 281 284
214 211 210 208 207 206 205 205 207 213 220 217 217 217 215 213 211 210 211 211 209 209 212 211 210 216 223 219 220 235 258 277 287 252 253 260 266 270 274 278 279 280 282
220 218 217 214 212 209 205 207 205 208 215 218 217 217 215 213 213 212 212 211 211 211 213 211 211 215 221 228 222 226 237 254 268 286 255 252 258 266 270 274 278 280 281
220 217 218 218 216 212 209 211 213 220 225 225 219 220 218 214 215 213 212 210 211 211 213 211 209 212 215 224 227 226 234 243 242 249 274 279 273 270 274 277 279 280 280
222 216 214 215 217 213 212 214 217 222 224 224 221 219 218 216 215 214 212 210 210 210 210 210 210 212 215 221 227 230 234 238 242 248 264 276 282 283 283 281 280 279 278
Height
1590 1592 1593 1595 1595 1596 1596 1595 1595 1594 1594 1593 1592 1591 1589 1588 1587 1586 1584 1583 1581 1579 1578 1576 1573 1571 1569 1567 1565 1562 1560 1559 1558 1557 1556 1556 1555 1554 1553 1552 1551 1551 1550
1588 1591 1592 1593 1594 1595 1595 1595 1594 1594 1593 1593 1592 1591 1590 1588 1587 1586 1584 1583 1581 1580 1578 1576 1574 1572 1569 1567 1565 1562 1560 1558 1557 1556 1555 1554 1554 1553 1552 1551 1550 1550 1549
1587 1589 1591 1592 1593 1594 1595 1595 1594 1594 1593 1592 1592 1591 1589 1588 1587 1586 1585 1583 1582 1580 1578 1576 1574 1572 1570 1568 1565 1563 1560 1558 1557 1555 1554 1553 1552 1552 1551 1550 1549 1548 1548
1586 1588 1590 1591 1592 1593 1594 1594 1594 1593 1593 1592 1591 1590 1589 1588 1587 1586 1584 1583 1582 1580 1578 1576 1574 1572 1570 1568 1566 1563 1561 1559 1558 1556 1554 1553 1552 1552 1551 1549 1548 1547 1546
1584 1587 1589 1590 1591 1592 1593 1593 1593 1593 1592 1592 1591 1590 1589 1588 1587 1585 1584 1583 1581 1580 1578 1576 1574 1572 1571 1569 1567 1564 1562 1560 1559 1557 1556 1554 1552 1552 1551 1549 1547 1545 1544
1583 1585 1587 1589 1590 1591 1592 1593 1593 1592 1592 1591 1590 1589 1588 1587 1586 1585 1583 1582 1581 1579 1578 1576 1574 1572 1571 1569 1567 1565 1563 1561 1560 1558 1556 1554 1553 1551 1550 1548 1546 1545 1543
1581 1584 1586 1587 1589 1590 1591 1591 1592 1591 1591 1590 1589 1589 1588 1586 1585 1584 1583 1581 1580 1578 1577 1575 1573 1572 1570 1569 1567 1566 1564 1562 1560 1558 1556 1554 1552 1551 1549 1547 1545 1544 1542
1580 1582 1584 1585 1587 1588 1589 1590 1590 1590 1590 1589 1589 1588 1587 1586 1584 1583 1582 1580 1579 1578 1576 1575 1573 1572 1570 1568 1567 1565 1563 1561 1559 1557 1555 1553 1551 1549 1548 1546 1544 1542 1540
1577 1579 1582 1584 1585 1586 1587 1588 1588 1588 1588 1588 1587 1586 1585 1584 1583 1582 1580 1579 1578 1576 1575 1574 1572 1571 1570 1568 1566 1564 1562 1560 1558 1556 1554 1552 1549 1547 1546 1544 1542 1540 1538
1574 1576 1579 1581 1583 1584 1585 1585 1586 1586 1586 1586 1585 1584 1583 1582 1581 1580 1579 1578 1577 1575 1574 1573 1572 1570 1569 1567 1565 1563 1561 1559 1556 1554 1552 1549 1547 1545 1543 1541 1539 1537 1536
1570 1572 1574 1577 1579 1580 1582 1582 1583 1583 1583 1583 1583 1582 1581 1580 1579 1578 1577 1576 1575 1574 1573 1572 1570 1569 1567 1565 1563 1561 1559 1557 1554 1552 1549 1547 1544 1542 1541 1539 1537 1535 1533
1564 1567 1569 1572 1574 1576 1578 1579 1580 1580 1580 1580 1580 1579 1579 1578 1577 1576 1575 1574 1573 1572 1571 1570 1569 1567 1566 1564 1562 1559 1557 1554 1552 1550 1547 1544 1541 1539 1538 1536 1534 1533 1530
1561 1562 1564 1567 1569 1571 1573 1574 1575 1576 1576 1576 1576 1576 1576 1575 1574 1574 1573 1572 1571 1570 1569 1568 1567 1565 1564 1562 1559 1557 1554 1552 1549 1546 1543 1540 1537 1535 1534 1532 1531 1529 1527
1555 1557 1559 1561 1563 1566 1568 1569 1570 1571 1572 1572 1572 1572 1572 1572 1571 1571 1570 1569 1568 1567 1566 1565 1564 1562 1561 1559 1556 1554 1551 1548 1545 1542 1539 1536 1533 1530 1529 1528 1527 1525 1523
1549 1551 1553 1555 1557 1560 1562 1563 1565 1566 1567 1568 1568 1568 1568 1568 1568 1567 1566 1566 1565 1564 1563 1562 1561 1559 1557 1555 1553 1551 1548 1545 1542 1539 1535 1532 1529 1526 1524 1523 1522 1521 1519
1542 1544 1547 1548 1551 1553 1555 1557 1559 1561 1562 1563 1563 1563 1564 1564 1563 1563 1562 1562 1561 1560 1559 1558 1557 1555 1554 1552 1549 1547 1544 1541 1538 1535 1531 1528 1525 1522 1520 1518 1517 1516 1514
1535 1538 1540 1542 1544 1546 1549 1552 1554 1555 1556 1557 1558 1558 1558 1558 1558 1558 1558 1557 1556 1555 1554 1553 1552 1551 1549 1547 1545 1543 1540 1537 1534 1531 1528 1524 1521 1518 1515 1513 1511 1510 1509
1528 1530 1533 1535 1537 1539 1542 1545 1547 1549 1550 1551 1551 1552 1552 1552 1553 1552 1552 1552 1551 1550 1550 1548 1547 1546 1544 1543 1541 1538 1536 1533 1530 1527 1523 1520 1517 1514 1511 1508 1505 1504 1502
1520 1523 1526 1528 1530 1533 1536 1538 1540 1542 1543 1543 1544 1544 1545 1546 1546 1546 1546 1546 1545 1545 1544 1543 1542 1540 1539 1537 1535 1533 1531 1528 1525 1522 1519 1516 1513 1509 1506 1503 1500 1497 1495
1513 1516 1518 1521 1523 1526 1528 1530 1531 1532 1533 1534 1534 1536 1537 1538 1539 1539 1539 1539 1539 1538 1538 1537 1536 1534 1533 1531 1529 1527 1525 1523 1520 1517 1514 1511 1508 1504 1501 1498 1495 1491 1489
1505 1507 1510 1512 1515 1517 1518 1519 1520 1521 1523 1524 1525 1527 1529 1530 1531 1531 1531 1531 1531 1531 1531 1530 1529 1528 1526 1525 1523 1520 1518 1516 1514 1511 1509 1506 1503 1500 1496 1493 1489 1486 1482
1497 1500 1502 1504 1507 1508 1509 1511 1513 1515 1515 1516 1517 1518 1520 1521 1522 1522 1523 1523 1523 1523 1523 1523 1522 1522 1520 1519 1518 1516 1514 1512 1507 1506 1504 1500 1497 1494 1491 1487 1484 1481 1477
1490 1492 1495 1497 1499 1501 1503 1505 1505 1506 1505 1505 1506 1507 1509 1511 1512 1513 1514 1514 1514 1514 1514 1514 1514 1514 1514 1512 1511 1511 1510 1506 1504 1500 1497 1495 1491 1488 1484 1481 1478 1474 1470
1484 1487 1489 1491 1493 1494 1495 1495 1494 1494 1493 1494 1496 1498 1499 1500 1501 1502 1504 1505 1505 1505 1505 1505 1506 1506 1506 1506 1504 1502 1502 1500 1498 1493 1491 1488 1485 1482 1479 1475 1472 1468 1464
1480 1481 1483 1484 1485 1486 1486 1486 1486 1485 1486 1488 1488 1487 1488 1488 1490 1491 1492 1493 1494 1495 1496 1496 1497 1497 1497 1498 1497 1496 1494 1493 1491 1488 1483 1482 1480 1477 1474 1470 1465 1461 1457
1475 1475 1475 1476 1476 1476 1476 1476 1476 1476 1477 1478 1477 1476 1476 1476 1477 1478 1480 1481 1482 1484 1485 1487 1487 1488 1488 1489 1489 1488 1487 1486 1485 1482 1478 1474 1472 1469 1466 1462 1458 1454 1449